Regional Weather Roundup
Issued by NWS

Home | Current Version | Previous Version | Text Only | Print | Product List | Glossary On
Versions: 1 2 3 4 5 6 7 8 9 10 11 12 13 14 15 16 17 18 19 20 21 22 23 24 25 26 27 28
000
ASCA42 TJSJ 271910
RWRPR
PUERTO RICO/U.S. VIRGIN ISLANDS HOURLY WEATHER ROUNDUP
NATIONAL WEATHER SERVICE SAN JUAN PR
300 PM AST SAT AUG 27 2016

PRZ001>002-007>008-010-272000-
PUERTO RICO

CITY           SKY/WX    TMP DP  RH WIND       PRES   REMARKS
SAN JUAN LMM   PTSUNNY   88  75  66 E15       29.91F HX  97
AGUADILLA      PTSUNNY   88  75  66 E12G17    29.93F HX  97
CEIBA          MOSUNNY   88  79  74 NE8       29.94F HX 102
$$

VIZ001>002-272000-
U.S. VIRGIN ISLANDS

CITY           SKY/WX    TMP DP  RH WIND       PRES   REMARKS
CHRISTIANSTED  MOSUNNY   86  77  74 SE6       29.93F HX  97
$$

HOURLY WEATHER ROUNDUP FOR THE NEWS MEDIA

CITY           SKY/WX    TMP DP  RH WIND       PRES   REMARKS
ORLANDO        PTSUNNY   90  73  57 NE13      29.95F HX  98
NEW YORK       CLOUDY    84  59  42 SE15G22   30.19S
NEWARK         PTSUNNY   85  56  37 SE10      30.17S
CHICAGO        PTSUNNY   80  70  71 SW12      30.02F
HARTFORD       SUNNY     89  55  31 NE7       30.15S
BOSTON         MOSUNNY   79  60  52 E14       30.17F
DALLAS         MOSUNNY   89  70  53 SE8       30.00F HX  94
PHILADELPHIA   PTSUNNY   91  59  33 VRB7      30.15F HX  90
LOS ANGELES    PTSUNNY   71  56  58 SW9       30.01F
WASHINGTON DC  MOSUNNY   90  62  39 VRB3      30.16F HX  90



USA.gov is the U.S. government's official web portal to all federal, state and local government web resources and services.